DateTimeUTC,F1_A11,F1_S11,BsB_S11,BsG_S11,BsR_S11,BbsB_S11,BbsG_S11,BbsR_S11,BaB_A11,BaG_A11,BaR_A11,Tu_S11,T_S11,Uu_S11,U_S11,P_S11,T1_A11
2021-09-14T08:00:00Z,00000200,20000000,,,,,,,0000.19,-000.04,0000.27,18.8,25.7,03.2,02.1,0658.5,31.1
2021-09-14T08:01:00Z,00000200,20000000,,,,,,,0000.16,-000.12,-000.37,18.8,25.7,03.2,02.1,0658.5,31.1
2021-09-14T08:02:00Z,00000200,20000000,,,,,,,-000.31,-000.36,-000.23,18.8,25.7,03.2,02.1,0658.5,31.1
2021-09-14T08:03:00Z,00000200,60000000,,,,,,,0000.35,0000.49,0000.22,18.8,25.7,03.2,02.1,0658.5,31.0
2021-09-14T08:04:00Z,00000200,40000000,0001.87,0001.20,0001.27,-000.04,0000.23,0000.37,0000.48,0000.23,0000.23,18.9,25.5,03.4,02.3,0659.3,31.0
2021-09-14T08:05:00Z,00000200,00000000,0001.31,0000.98,0000.59,0000.32,0000.52,0000.53,0000.47,0000.25,0000.34,18.9,25.4,03.4,02.3,0659.4,31.0
2021-09-14T08:06:00Z,00000200,00000000,0001.38,0001.38,0000.73,0000.22,0000.43,0000.37,0000.36,0000.52,0000.20,18.9,25.4,03.5,02.4,0659.4,31.0
2021-09-14T08:07:00Z,00000200,00000000,0001.53,0001.16,0000.76,0000.16,0000.18,0000.28,0000.47,0000.42,0000.24,18.9,25.4,03.6,02.4,0659.4,31.0
2021-09-14T08:08:00Z,00000200,00000000,0001.41,0000.93,0000.61,0001.11,0000.13,0000.08,0000.10,0000.19,0000.17,18.9,25.4,03.5,02.4,0659.4,31.0
2021-09-14T08:09:00Z,00000200,00000000,0001.65,0001.24,0000.88,0000.25,0000.08,0000.41,0000.66,0000.28,0000.50,18.8,25.4,03.6,02.4,0659.3,31.0
2021-09-14T08:10:00Z,00000200,00000000,0000.74,0001.52,0000.76,0000.25,0000.20,0000.16,0000.31,0000.84,0000.73,18.8,25.4,03.6,02.4,0659.4,31.0
2021-09-14T08:11:00Z,00000200,00000000,0001.48,0001.21,0000.83,0000.20,0000.19,0000.13,0000.85,0000.42,0000.12,18.8,25.4,03.7,02.5,0659.4,31.1
2021-09-14T08:12:00Z,00000200,00000000,0001.64,0001.25,0000.87,-000.01,0000.29,0000.58,0000.22,0000.72,0000.54,18.9,25.4,03.8,02.5,0659.3,31.1
2021-09-14T08:13:00Z,00000200,00000000,0001.76,0001.16,0000.89,-000.29,0000.36,0000.23,0000.32,0000.30,0000.40,19.0,25.4,03.7,02.5,0659.4,31.1
2021-09-14T08:14:00Z,00000200,00000000,0001.00,0001.16,0000.65,-000.29,0000.38,-000.17,0000.43,0000.46,0000.35,19.1,25.5,03.7,02.5,0659.4,31.1
2021-09-14T08:15:00Z,00000200,00000000,0001.80,0000.90,0000.79,-000.06,0000.18,0000.14,0000.62,0000.44,0000.29,19.2,25.5,03.7,02.5,0659.4,31.1
2021-09-14T08:16:00Z,00000200,00000000,0001.17,0000.64,0000.88,0000.67,0000.36,0000.31,0000.33,-000.04,-000.01,19.2,25.5,03.6,02.4,0659.4,31.1
2021-09-14T08:17:00Z,00000200,00000000,0001.74,0000.88,0000.85,0000.24,0000.25,0000.22,-000.13,0000.43,0000.47,19.2,25.5,03.6,02.5,0659.4,31.1
2021-09-14T08:18:00Z,00000200,00000000,0001.96,0001.09,0000.67,0000.57,0000.17,0000.05,-000.10,-000.07,-000.20,19.1,25.5,03.6,02.5,0659.4,31.1
2021-09-14T08:19:00Z,00000200,00000000,0001.52,0000.93,0000.76,-000.26,-000.07,0000.33,0000.60,-000.27,0000.11,19.1,25.5,03.7,02.5,0659.3,31.1
2021-09-14T08:20:00Z,00000200,00000000,0001.98,0000.89,0001.24,0000.32,0000.42,0000.42,0000.18,0000.41,0000.22,19.0,25.5,03.7,02.5,0659.3,31.1
2021-09-14T08:21:00Z,00000200,00000000,0001.48,0001.46,0000.74,0000.38,0000.22,0000.47,0000.47,0000.38,0000.09,19.0,25.5,03.8,02.6,0659.3,31.1
2021-09-14T08:22:00Z,00000200,00000000,0001.78,0000.91,0000.53,0000.41,0000.24,0000.16,0000.03,-000.05,0000.40,19.0,25.5,03.8,02.6,0659.3,31.0
2021-09-14T08:23:00Z,00000200,00000000,0000.81,0000.93,0000.79,0000.00,0000.20,0000.46,0000.48,0000.32,0000.16,19.0,25.4,03.8,02.6,0659.3,31.1
2021-09-14T08:24:00Z,00000200,00000000,0001.29,0001.09,0000.74,0000.18,0000.68,-000.07,0000.35,0000.61,0000.37,19.0,25.4,03.8,02.6,0659.3,31.0
2021-09-14T08:25:00Z,00000200,00000000,0001.17,0001.12,0000.72,0000.21,0000.28,0000.20,0000.32,0000.46,0001.02,18.9,25.4,03.8,02.6,0659.3,31.1
2021-09-14T08:26:00Z,00000200,00000000,0000.79,0001.17,0000.76,0000.64,0000.36,0000.36,0000.95,0001.25,0000.15,18.9,25.4,03.9,02.6,0659.2,31.0
2021-09-14T08:27:00Z,00000200,00000000,0001.59,0000.94,0000.80,0000.40,0000.29,0000.08,0000.11,-000.00,0000.21,19.0,25.4,03.9,02.7,0659.3,31.1
2021-09-14T08:28:00Z,00000200,00000000,0001.81,0000.73,0000.99,-000.10,0000.41,0000.25,0000.53,0000.42,0000.25,19.1,25.5,03.8,02.6,0659.3,31.1
2021-09-14T08:29:00Z,00000200,00000000,0001.17,0000.93,0000.91,0000.53,0000.40,-000.02,0000.37,0000.10,0000.79,19.2,25.5,03.7,02.5,0659.2,31.1
2021-09-14T08:30:00Z,00000200,00000000,0000.97,0000.79,0000.65,-000.14,0000.19,0000.26,0000.49,0000.18,-000.28,19.2,25.5,03.9,02.7,0659.2,31.1
2021-09-14T08:31:00Z,00000200,00000000,0001.65,0000.97,0000.73,0000.48,-000.04,0000.19,0000.09,0000.50,0000.52,19.2,25.5,03.9,02.6,0659.3,31.1
2021-09-14T08:32:00Z,00000200,00000000,0001.08,0000.95,0000.70,0000.71,0000.29,0000.33,0000.29,-000.33,-000.36,19.1,25.5,04.0,02.7,0659.3,31.1
2021-09-14T08:33:00Z,00000200,00000000,0000.60,0000.95,0000.85,0000.22,-000.07,-000.11,0000.16,0000.56,-000.02,19.1,25.5,03.9,02.6,0659.3,31.1
2021-09-14T08:34:00Z,00000200,00000000,0001.65,0000.80,0000.68,0000.57,0000.44,0000.31,0000.28,0000.15,0000.66,19.1,25.5,03.9,02.7,0659.3,31.1
2021-09-14T08:35:00Z,00000200,00000000,0000.55,0000.45,0000.77,-000.40,-000.01,0000.09,0000.19,0000.45,0000.26,19.0,25.4,04.0,02.7,0659.3,31.1
2021-09-14T08:36:00Z,00000200,00000000,0001.75,0000.86,0000.43,0000.12,0000.41,0000.19,0000.42,0000.33,0000.30,19.0,25.4,04.0,02.7,0659.3,31.0
2021-09-14T08:37:00Z,00000200,00000000,0001.13,0000.98,0001.00,0000.61,0000.06,0000.45,0000.51,0000.04,0000.19,19.0,25.4,04.0,02.7,0659.3,31.0
2021-09-14T08:38:00Z,00000200,00000000,0000.66,0000.99,0000.81,0000.20,-000.01,0000.08,-000.04,0000.26,0000.01,18.9,25.4,04.1,02.8,0659.3,31.0
2021-09-14T08:39:00Z,00000200,00000000,0001.72,0001.25,0000.84,0000.67,0000.34,0000.32,0000.40,0000.62,0000.46,18.9,25.4,04.1,02.8,0659.3,31.0
2021-09-14T08:40:00Z,00000200,00000000,0001.13,0001.29,0000.81,-000.55,0000.21,0000.13,0000.55,0000.44,0000.15,18.9,25.4,04.1,02.8,0659.3,31.0
2021-09-14T08:41:00Z,00000200,00000000,0000.96,0000.94,0000.71,0000.12,0000.11,0000.25,0000.83,0000.56,0000.89,18.9,25.4,04.2,02.8,0659.3,31.1
2021-09-14T08:42:00Z,00000200,00000000,0001.59,0000.90,0000.81,0000.65,0000.19,0000.22,0000.42,0000.43,0000.25,19.0,25.4,04.1,02.8,0659.3,31.1
2021-09-14T08:43:00Z,00000200,00000000,0001.33,0001.17,0000.76,0000.36,0000.41,0000.37,0000.31,0000.42,0000.42,19.1,25.4,04.2,02.9,0659.3,31.1
2021-09-14T08:44:00Z,00000200,00000000,0001.28,0001.25,0000.97,0000.22,0000.32,0000.10,0000.55,0000.60,0000.51,19.2,25.5,04.1,02.8,0659.3,31.1
2021-09-14T08:45:00Z,00000200,00000000,0001.23,0000.81,0000.98,0000.16,-000.03,0000.05,0000.12,0000.32,0000.22,19.2,25.5,04.2,02.9,0659.3,31.1
2021-09-14T08:46:00Z,00000200,00000000,0000.96,0001.05,0000.80,0000.71,-000.02,0000.26,0000.22,-000.05,-000.17,19.2,25.5,04.0,02.7,0659.3,31.1
2021-09-14T08:47:00Z,00000200,00000000,0001.37,0000.95,0001.24,0000.46,0000.05,0000.10,0000.05,0000.26,0000.05,19.2,25.5,04.1,02.8,0659.2,31.1
2021-09-14T08:48:00Z,00000200,00000000,0001.48,0001.31,0000.62,0000.69,0000.42,0000.28,0000.14,-000.10,0000.33,19.1,25.5,04.1,02.8,0659.3,31.1
2021-09-14T08:49:00Z,00000200,00000000,0001.00,0000.81,0000.53,-000.48,0000.01,0000.25,0000.32,0000.59,0000.31,19.1,25.5,04.1,02.8,0659.3,31.1
2021-09-14T08:50:00Z,00000200,00000000,0001.68,0000.88,0001.12,0000.36,0000.43,0000.35,0000.14,-000.21,0000.12,19.1,25.4,04.2,02.9,0659.3,31.1
2021-09-14T08:51:00Z,00000200,00000000,0001.76,0001.04,0000.75,0000.18,0000.07,0000.04,0000.80,0000.50,0000.27,19.0,25.4,04.1,02.8,0659.3,31.1
2021-09-14T08:52:00Z,00000200,00000000,0000.56,0000.97,0000.62,0000.10,0000.08,0000.38,-000.25,0000.49,0000.24,19.0,25.4,04.1,02.8,0659.3,31.1
2021-09-14T08:53:00Z,00000200,00000000,0000.92,0000.92,0001.01,0000.53,0000.37,0000.12,0000.95,0000.05,0000.27,19.0,25.4,04.2,02.8,0659.3,31.1
2021-09-14T08:54:00Z,00000200,00000000,0001.88,0000.93,0000.52,0000.02,0000.06,0000.39,0000.03,0000.15,0000.01,19.0,25.4,04.2,02.9,0659.3,31.1
2021-09-14T08:55:00Z,00000200,00000000,0001.44,0000.68,0000.89,0000.18,0000.01,0000.25,0000.37,0000.86,0000.79,19.0,25.4,04.2,02.9,0659.3,31.1
2021-09-14T08:56:00Z,00000200,00000000,0001.07,0001.05,0000.73,0000.28,0000.30,0000.34,0000.38,0000.58,0000.40,19.0,25.4,04.2,02.9,0659.3,31.1
2021-09-14T08:57:00Z,00000200,40000000,,,,,,,0000.10,-000.28,-000.30,19.1,25.5,04.1,02.8,0659.4,31.1
2021-09-14T08:58:00Z,00000200,60000000,,,,,,,0000.15,-000.03,0000.23,18.9,25.6,03.9,02.6,0658.4,31.1
2021-09-14T08:59:00Z,00000200,20000000,,,,,,,0000.01,0000.25,0000.07,19.0,25.7,03.9,02.6,0658.4,31.1
